[[{"header":{"parameterUnit":"m.s-1","parameterCategory":1,"la1":30.2991,"la2":30.254,"lo1":-89.0895,"lo2":-89.0444,"dy":0.0017,"dx":0.0017,"nx":28,"ny":28,"refTime":"2025-01-23T03:00:00:Z","depth":0,"parameterNumber":2,"parameterNumberName":"U-component_of_WINDS"},"data":[0,0,0,0,0,0,0,0,0,0,0,0,0,0,0,0,0,0,0,0,0,0,0,0,0,0,0,0,0,0,0,0,0,0,0,0,0,0,0,0,0,0,0,0,0,0,0,0,0,0,0,0,0,0,0,0,0,0,1.4916,1.4916,0,1.4901,1.49,1.49,1.4891,1.4891,1.4891,1.4891,1.4875,1.4874,1.4874,0,0,0,0,0,0,0,0,0,0,0,0,0,1.4937,1.4937,1.4916,1.4916,1.4916,1.4901,1.49,1.49,1.4891,1.4891,1.4891,1.4891,1.4875,1.4874,1.4874,0,0,0,0,0,0,0,0,0,0,0,0,0,1.4925,1.4937,1.4916,1.491,1.4909,1.4901,1.49,1.49,1.4891,1.4891,1.4891,1.4891,1.4875,1.4874,1.4874,1.4871,0,0,1.4872,1.4872,0,0,0,0,0,0,0,0,1.4926,1.4925,1.4911,1.491,1.4909,1.4898,1.4902,1.489,1.4891,1.4898,1.4891,1.4891,1.4882,1.4881,1.4878,1.487,1.487,1.4872,1.4871,1.4871,1.4871,0,0,0,0,0,0,0,1.4927,1.4925,1.491,1.4911,1.491,1.4907,1.4905,1.49,1.4891,1.4897,1.4897,1.4895,1.4882,1.4879,1.4878,1.4869,1.4872,1.4871,1.4871,1.4871,1.4857,1.4857,0,0,0,0,0,0,1.4929,1.4926,1.4911,1.491,1.4918,1.4907,1.4905,1.4902,1.4891,1.4889,1.4895,1.4895,1.488,1.4879,1.4877,1.4872,1.4871,1.4871,1.487,1.4857,1.4857,1.4857,0,0,0,0,0,0,1.4929,1.4928,1.4911,1.4918,1.4915,1.4906,1.4903,1.4901,1.4898,1.4889,1.4887,1.4894,1.488,1.4878,1.4872,1.4872,1.487,1.487,1.4857,1.4857,1.4857,1.4863,0,0,0,0,0,0,1.493,1.4928,1.4927,1.4918,1.4915,1.4907,1.4903,1.4901,1.4897,1.4897,1.4887,1.4886,1.488,1.4873,1.4872,1.4871,1.4869,1.4857,1.4857,1.4857,1.4863,1.4864,1.4864,0,0,0,0,0,1.4931,1.493,1.4927,1.4925,1.4914,1.4907,1.4906,1.4899,1.4897,1.4896,1.489,1.4886,1.4872,1.4873,1.4871,1.487,1.4857,1.4857,1.4857,1.4863,1.4864,1.4864,0,0,0,0,0,0,1.4939,1.4928,1.4925,1.4921,1.4915,1.4906,1.4904,1.49,1.4894,1.4894,1.4885,1.4883,1.4878,1.4874,1.4874,1.4866,1.4864,1.4864,1.4869,1.487,1.487,1.4871,1.4869,0,0,0,0,0,1.4941,1.4937,1.4927,1.4924,1.4921,1.4913,1.491,1.4905,1.4899,1.4896,1.4889,1.4883,1.4877,1.4873,1.4867,1.4862,1.486,1.4861,1.4861,1.4862,1.4861,1.4857,1.4857,1.4857,1.4857,1.4857,0,0,1.4944,1.4937,1.4935,1.4926,1.4921,1.4916,1.4911,1.4906,1.4903,1.4895,1.4889,1.4884,1.4876,1.487,1.4868,1.4866,1.4861,1.4862,1.4862,1.4861,1.4857,1.4857,1.4857,1.4857,1.4857,1.4857,0,0,1.4947,1.4942,1.4938,1.4933,1.4925,1.4919,1.4918,1.4909,1.4905,1.4899,1.4893,1.4888,1.4879,1.4873,1.4868,1.4868,1.4863,1.4866,1.4868,1.4864,1.4864,1.4864,1.4863,1.4863,1.4866,1.4866,1.4866,0,1.4951,1.4944,1.4937,1.4932,1.4928,1.4921,1.4917,1.4912,1.4903,1.49,1.4898,1.4885,1.4879,1.4872,1.4872,1.4869,1.4867,1.4867,1.4865,1.4865,1.4865,1.4864,1.4863,1.4866,1.4866,1.4866,1.4866,0,1.495,1.4945,1.4943,1.4934,1.4929,1.4925,1.4917,1.4913,1.4909,1.4903,1.4896,1.4889,1.4881,1.4879,1.4874,1.487,1.4869,1.4867,1.4864,1.4865,1.4864,1.4864,1.4867,1.4867,1.4866,1.4866,0,0,1.4958,1.4944,1.4944,1.4939,1.4929,1.4925,1.492,1.4912,1.4908,1.4902,1.4897,1.4888,1.4885,1.488,1.4875,1.4872,1.4871,1.487,1.4869,1.4869,1.4865,1.4866,1.4866,1.4868,1.4868,1.4868,1.4865,0,1.4959,1.495,1.4943,1.4937,1.4931,1.4924,1.4919,1.4913,1.4907,1.4901,1.4895,1.4888,1.4886,1.4882,1.4879,1.4872,1.487,1.4872,1.4863,1.4862,1.4865,1.4866,1.4868,1.4866,1.4865,1.4864,1.4864,0,1.4959,1.4952,1.4945,1.4935,1.4932,1.4929,1.492,1.4915,1.4907,1.4903,1.4897,1.4891,1.4885,1.4883,1.4874,1.4875,1.4871,1.4867,1.4866,1.4865,1.4863,1.4864,1.4865,1.4864,1.4864,1.4864,1.4864,0,1.4964,1.4954,1.4948,1.4944,1.4932,1.493,1.4924,1.4916,1.4911,1.4904,1.4901,1.4893,1.4888,1.4881,1.4873,1.4873,1.4864,1.4862,1.486,1.486,1.4859,1.4859,1.4859,1.4857,1.4857,1.4857,1.4857,0,1.4966,1.4962,1.495,1.4947,1.4941,1.4933,1.4928,1.4922,1.4915,1.4909,1.4902,1.4897,1.4887,1.4881,1.4874,1.4867,1.4865,1.4861,1.4859,1.4862,1.4862,1.4858,1.4858,1.4857,1.4857,1.4857,1.4857,0,1.4972,1.4964,1.4957,1.4946,1.4943,1.494,1.493,1.4926,1.4919,1.4912,1.491,1.49,1.4892,1.4883,1.4872,1.4868,1.4861,1.4859,1.4864,1.4862,1.4861,1.4861,1.4858,1.4857,1.4856,1.4856,1.4856,0,1.4973,1.4969,1.4958,1.4954,1.4949,1.4942,1.4938,1.4929,1.4924,1.4914,1.491,1.4902,1.4894,1.4881,1.4873,1.4864,1.4861,1.4861,1.486,1.4862,1.486,1.486,1.486,1.4861,1.4861,1.4861,1.4861,0,1.4976,1.4972,1.4965,1.4957,1.4951,1.4944,1.4937,1.4934,1.4924,1.4918,1.491,1.4904,1.4893,1.4884,1.4874,1.4868,1.4862,1.4861,1.486,1.4862,1.4865,1.4863,1.4864,1.4862,1.4862,1.4862,1.4861,1.4861,1.4979,1.4975,1.4966,1.4959,1.4952,1.4945,1.494,1.4933,1.4926,1.4916,1.4912,1.4903,1.4893,1.4879,1.4873,1.4866,1.4864,1.4863,1.4863,1.4862,1.4862,1.4867,1.4864,1.4864,1.4864,1.4864,1.4864,0,1.498,1.4974,1.4968,1.4957,1.4951,1.4947,1.4939,1.4934,1.4926,1.4918,1.4911,1.49,1.4891,1.4882,1.4872,1.4868,1.4865,1.4865,1.4865,1.4864,1.4865,1.4866,1.4868,1.4868,1.4868,1.4868,1.4868,1.4868,1.4981,1.4974,1.4969,1.4958,1.4952,1.4943,1.4939,1.4932,1.4925,1.4914,1.4907,1.4901,1.4891,1.4881,1.4872,1.4869,1.4866,1.4867,1.4863,1.4864,1.4864,1.4864,1.4865,1.4866,1.4866,1.4863,1.4863,1.4863]},{"header":{"parameterUnit":"m.s-1","parameterCategory":1,"la1":30.2991,"la2":30.254,"lo1":-89.0895,"lo2":-89.0444,"dy":0.0017,"dx":0.0017,"nx":28,"ny":28,"refTime":"2025-01-23T03:00:00:Z","depth":0,"parameterNumber":3,"parameterNumberName":"V-component_of_WINDS"},"data":[0,0,0,0,0,0,0,0,0,0,0,0,0,0,0,0,0,0,0,0,0,0,0,0,0,0,0,0,0,0,0,0,0,0,0,0,0,0,0,0,0,0,0,0,0,0,0,0,0,0,0,0,0,0,0,0,0,0,-1.9925,-1.9925,0,-1.996,-1.996,-1.9961,-1.9953,-1.9952,-1.9952,-1.9951,-1.9987,-1.9989,-1.999,0,0,0,0,0,0,0,0,0,0,0,0,0,-1.9851,-1.9853,-1.9925,-1.9925,-1.9926,-1.996,-1.996,-1.9961,-1.9953,-1.9952,-1.9952,-1.9951,-1.9987,-1.9988,-1.999,0,0,0,0,0,0,0,0,0,0,0,0,0,-1.9884,-1.9853,-1.9925,-1.9926,-1.9926,-1.996,-1.996,-1.9961,-1.9953,-1.9952,-1.9951,-1.995,-1.9986,-1.9988,-1.9991,-2.0025,0,0,-1.9998,-1.9999,0,0,0,0,0,0,0,0,-1.9882,-1.9887,-1.9925,-1.9926,-1.9926,-1.9951,-1.9947,-1.9982,-1.9954,-1.9943,-1.9951,-1.995,-1.9976,-1.9979,-1.9988,-2.0026,-2.0028,-1.9998,-1.9999,-2.0,-2.0001,0,0,0,0,0,0,0,-1.988,-1.9886,-1.9939,-1.9926,-1.9927,-1.9925,-1.9928,-1.9954,-1.9965,-1.9944,-1.9943,-1.9948,-1.9976,-1.9985,-1.9989,-2.0028,-1.9998,-2.0,-2.0001,-2.0002,-2.0096,-2.0098,0,0,0,0,0,0,-1.9877,-1.9884,-1.9937,-1.994,-1.9902,-1.9927,-1.9931,-1.9944,-1.9964,-1.9966,-1.9948,-1.9947,-1.9982,-1.9986,-1.999,-2.0031,-2.0,-2.0003,-2.0004,-2.0095,-2.0097,-2.0098,0,0,0,0,0,0,-1.9876,-1.9882,-1.9936,-1.9912,-1.9918,-1.9929,-1.9944,-1.9945,-1.9955,-1.9968,-1.997,-1.9956,-1.9981,-1.9986,-2.0016,-2.0032,-2.0004,-2.0006,-2.0094,-2.0096,-2.0097,-2.0113,0,0,0,0,0,0,-1.9874,-1.9882,-1.9895,-1.9912,-1.992,-1.9962,-1.9945,-1.9947,-1.9959,-1.9957,-1.9975,-1.9977,-1.9981,-2.0012,-2.0018,-2.0034,-2.0008,-2.0093,-2.0095,-2.0097,-2.0111,-2.0115,-2.0118,0,0,0,0,0,-1.9871,-1.9898,-1.9895,-1.9902,-1.9936,-1.9963,-1.9967,-1.997,-1.996,-1.9973,-1.9982,-1.9977,-2.0029,-2.0016,-2.0022,-2.0039,-2.0092,-2.0094,-2.0097,-2.0109,-2.0114,-2.0118,0,0,0,0,0,0,-1.9882,-1.99,-1.9898,-1.9931,-1.9945,-1.9961,-1.9978,-1.9975,-1.9993,-1.9991,-1.9995,-1.9999,-2.0029,-2.0037,-2.0021,-2.0073,-2.0059,-2.0063,-2.0066,-2.0071,-2.0074,-2.0071,-2.001,0,0,0,0,0,-1.9889,-1.9909,-1.9923,-1.9951,-1.9958,-1.9967,-1.9979,-1.998,-1.9995,-2.0001,-2.0012,-2.0027,-2.0046,-2.0059,-2.0078,-2.0112,-2.0116,-2.0127,-2.0131,-2.0134,-2.0137,-2.0155,-2.016,-2.0106,-2.0106,-2.0106,0,0,-1.9902,-1.9914,-1.9927,-1.9954,-1.9965,-1.9985,-1.9972,-1.9994,-2.001,-2.0005,-2.0033,-2.0041,-2.0058,-2.009,-2.0104,-2.0098,-2.0153,-2.0137,-2.0139,-2.014,-2.0158,-2.0163,-2.0168,-2.0108,-2.0107,-2.0107,0,0,-1.9937,-1.9948,-1.9972,-1.9984,-2.0001,-2.0007,-2.0012,-2.0029,-2.0034,-2.0063,-2.0059,-2.0077,-2.0111,-2.0123,-2.0134,-2.0173,-2.0169,-2.0179,-2.0198,-2.0215,-2.022,-2.0223,-2.0237,-2.0242,-2.0182,-2.0182,-2.0182,0,-1.9951,-1.9981,-1.9985,-2.0007,-2.0019,-2.0016,-2.004,-2.0051,-2.0074,-2.0082,-2.0074,-2.0117,-2.0128,-2.0162,-2.0172,-2.0181,-2.0187,-2.0177,-2.0219,-2.0222,-2.0226,-2.0239,-2.0244,-2.0183,-2.0183,-2.0183,-2.0183,0,-1.9998,-2.0019,-2.0037,-2.0058,-2.0072,-2.0096,-2.0102,-2.0116,-2.0116,-2.0123,-2.0152,-2.0165,-2.0186,-2.0195,-2.0195,-2.0229,-2.0224,-2.0218,-2.0204,-2.0232,-2.0244,-2.0249,-2.0185,-2.0185,-2.0184,-2.0184,0,0,-2.004,-2.0063,-2.007,-2.0079,-2.0098,-2.0115,-2.0138,-2.0159,-2.017,-2.0186,-2.0205,-2.0234,-2.0228,-2.024,-2.0242,-2.0258,-2.0287,-2.0249,-2.0249,-2.0255,-2.0325,-2.0329,-2.0335,-2.0285,-2.0286,-2.0287,-2.0323,0,-2.0076,-2.0116,-2.012,-2.0156,-2.0176,-2.0173,-2.0193,-2.0207,-2.0213,-2.0231,-2.0238,-2.0258,-2.0249,-2.0256,-2.0272,-2.028,-2.0301,-2.0278,-2.0303,-2.0303,-2.0298,-2.0341,-2.0346,-2.0379,-2.0328,-2.0329,-2.0329,0,-2.0123,-2.0139,-2.0178,-2.0194,-2.0202,-2.022,-2.0239,-2.0256,-2.0271,-2.0275,-2.0289,-2.0289,-2.0312,-2.0298,-2.033,-2.0315,-2.0325,-2.0331,-2.0332,-2.0334,-2.0318,-2.0343,-2.039,-2.0395,-2.0337,-2.0336,-2.0336,0,-2.0149,-2.0181,-2.0208,-2.0216,-2.0236,-2.0248,-2.0257,-2.0272,-2.0284,-2.0301,-2.0309,-2.0328,-2.0339,-2.0354,-2.0359,-2.0348,-2.0392,-2.0377,-2.0395,-2.0395,-2.0404,-2.0403,-2.0452,-2.0412,-2.0412,-2.0411,-2.0411,0,-2.0188,-2.0211,-2.022,-2.0236,-2.0262,-2.0267,-2.0292,-2.03,-2.0313,-2.0331,-2.033,-2.0347,-2.0353,-2.0371,-2.0376,-2.0402,-2.0407,-2.041,-2.0411,-2.041,-2.0409,-2.0416,-2.0414,-2.0413,-2.0413,-2.0412,-2.0412,0,-2.0221,-2.0228,-2.0257,-2.0273,-2.0277,-2.0296,-2.0309,-2.0325,-2.0332,-2.0354,-2.036,-2.037,-2.0391,-2.0398,-2.0424,-2.0427,-2.0457,-2.0456,-2.0452,-2.0452,-2.0469,-2.0467,-2.0524,-2.0531,-2.0486,-2.0486,-2.0487,0,-2.0245,-2.0263,-2.0281,-2.0292,-2.0301,-2.0321,-2.0333,-2.0338,-2.0351,-2.037,-2.0383,-2.0404,-2.0421,-2.0455,-2.0465,-2.0484,-2.0483,-2.0502,-2.0486,-2.0485,-2.0483,-2.0482,-2.0483,-2.0505,-2.0505,-2.0506,-2.0506,0,-2.0287,-2.0289,-2.0307,-2.0326,-2.0341,-2.0356,-2.0371,-2.038,-2.0387,-2.0402,-2.0423,-2.0437,-2.0463,-2.0483,-2.0503,-2.0512,-2.051,-2.0511,-2.0516,-2.0515,-2.0511,-2.0513,-2.0459,-2.0509,-2.0509,-2.0509,-2.0509,-2.0508,-2.0316,-2.0332,-2.0346,-2.0366,-2.0377,-2.0391,-2.0407,-2.0415,-2.0433,-2.0454,-2.0456,-2.0479,-2.0494,-2.0521,-2.0531,-2.0549,-2.0544,-2.0551,-2.0553,-2.0554,-2.0556,-2.0509,-2.0553,-2.0553,-2.0553,-2.0552,-2.0552,0,-2.0357,-2.0367,-2.0385,-2.0405,-2.0421,-2.0417,-2.0433,-2.0447,-2.0467,-2.0481,-2.0497,-2.0522,-2.0542,-2.0553,-2.0573,-2.0586,-2.0585,-2.0591,-2.059,-2.0592,-2.0559,-2.0553,-2.0591,-2.0591,-2.0591,-2.0591,-2.0591,-2.0591,-2.0381,-2.0407,-2.0411,-2.0442,-2.0452,-2.0474,-2.0483,-2.0496,-2.0507,-2.0535,-2.0551,-2.0558,-2.0571,-2.0592,-2.0611,-2.0613,-2.0621,-2.0627,-2.0629,-2.0598,-2.0594,-2.059,-2.0584,-2.0628,-2.0628,-2.066,-2.066,-2.066]}]]